Карточка аэропорта UHPP

Внимание!
Информация на этой странице в стадии наполнения.
Если вы не увидели какой-то информации, или заметили неточность - пожалуйста сообщите нам!
Спасибо!
Команда RU-STAFF
Название аэропортаЕлизово
Название аэропорта (англ.)Yelizovo
Превышение131 ft. (39.9 m.)
Координаты53°10.2', 158°27.6'
Высота перехода2400m
Эшелон переходаQFE > 759 mmHg - FL090; 729 mmHg < QFE < 759 mmHg - FL100; QFE < 729 mmHg - FL110
Коды ответчика6630-6657
Зона ОрВДМагадан РПИ (UHMM)
Данные METARUHPP 121500Z 05002MPS 9999 BKN033 10/09 Q1011 R16R/CLRD60 NOSIG RMK QFE755/1007
Проноз погоды (TAF)UHPP 121331Z 1215/1321 14003G12MPS 9999 BKN030 TEMPO 1215/1221 0500 FG VV002
NOTAMshow/hide NOTAM
AWOS   TABLE

Информация о ВПП

ВПП Длина ВПП (м.) Покрытие Курс ВПП Частота ILS
34L2500Бетон344108.7
16R2500Бетон164109.9

Диспетчерские позиции

Позывной Наименование органа УВД Частота
UHPP_TWRПетропавловск - Старт118.100
UHPP_GNDПетропавловск - Руление127.000
UHPP_R_APPПетропавловск - Круг119.400
UHPP_ATISПетропавловск - АТИС126.800



Спутниковое изображение